Location: Fort Wayne
(41.1310°N, 85.1290°W)
Time: 01:11:30
(UTC-04:00)

Amateur Radio Satellites - All Passes

Search period start: 27 April 2017 00:41
Search period end: 28 April 2017 00:41
Location: Fort Wayne, 41.1310°N, 85.1290°W

Satellite Date Start Highest point End Downlink Frequencies (MHz)
Time Altitude Azimuth
DX 1 27 Apr 00:42:17 00:45:08 17° 64° (ENE) 00:47:58 434.975-435.025
SPROUT 27 Apr 00:50:56 00:55:02 47° 73° (ENE) 00:59:08 437.525
PRISM 27 Apr 00:59:16 01:00:36 11° 298° (WNW) 01:01:55 437.425
EO-79 27 Apr 01:03:16 01:07:10 37° 98° (E) 01:11:03 145.935-145.965
DUCHIFAT 1 27 Apr 01:05:12 01:08:56 31° 97° (E) 01:12:40 145.980
TIGRISAT 27 Apr 01:12:51 01:15:11 14° 296° (WNW) 01:17:31 435.000
ESTCUBE 1 27 Apr 01:13:50 01:17:35 26° 265° (W) 01:21:21 437.505/2401.250
VELOX 1 27 Apr 01:25:18 01:29:43 66° 258° (WSW) 01:34:10 145.980
POLYITAN 1 27 Apr 01:42:22 01:46:35 76° 283° (WNW) 01:50:46 437.675
UKube-1 27 Apr 01:43:20 01:47:31 51° 72° (ENE) 01:51:44 .
AIST 2D 27 Apr 01:45:07 01:48:08 27° 289° (WNW) 01:51:08 435.315
BEESAT 2 27 Apr 01:46:43 01:48:17 12° 252° (WSW) 01:49:50 435.950
FO-29 27 Apr 01:46:49 01:49:40 15° 299° (WNW) 01:52:34 435.910
QB50P2 27 Apr 01:49:03 01:53:12 58° 286° (WNW) 01:57:19 145.880/145.840
50 SAT 27 Apr 02:05:48 02:08:53 30° 263° (W) 02:12:01 437.505
BUGSAT 1 27 Apr 02:06:08 02:10:02 48° 100° (E) 02:13:54 437.445
NANOSAT C BR1 27 Apr 02:10:58 02:14:53 39° 288° (WNW) 02:18:46 145.865
DX 1 27 Apr 02:16:44 02:20:56 46° 260° (W) 02:25:10 434.975-435.025
Oscar 19 27 Apr 02:17:19 02:21:24 23° 94° (E) 02:25:27 437.125/150
Gurwin Techsat 1B 27 Apr 02:21:33 02:24:24 14° 90° (E) 02:27:14 435.225
SPROUT 27 Apr 02:28:46 02:31:11 15° 268° (W) 02:33:36 437.525
NO-84 27 Apr 02:39:42 02:42:03 21° 30° (NNE) 02:44:19 435.350 FM
EO-79 27 Apr 02:39:43 02:42:39 19° 294° (WNW) 02:45:35 145.935-145.965
DUCHIFAT 1 27 Apr 02:41:15 02:44:25 21° 293° (WNW) 02:47:35 145.980
BEESAT 27 Apr 02:41:59 02:45:22 20° 64° (ENE) 02:48:47 436.000
PCSat 27 Apr 02:45:39 02:50:37 38° 111° (ESE) 02:55:37 145.827
ITUPSAT 1 27 Apr 03:21:24 03:25:55 46° 71° (ENE) 03:30:29 437.325
UKube-1 27 Apr 03:21:35 03:23:50 14° 268° (W) 03:26:05 .
BUGSAT 1 27 Apr 03:42:57 03:44:59 14° 296° (WNW) 03:47:01 437.445
ITAMSAT 1 27 Apr 03:45:12 03:47:22 12° 90° (E) 03:49:31 435.822/435.867
Oscar 19 27 Apr 03:55:57 04:00:52 43° 290° (WNW) 04:05:46 437.125/150
Gurwin Techsat 1B 27 Apr 03:59:32 04:04:50 70° 287° (WNW) 04:10:06 435.225
AO-7 27 Apr 04:04:06 04:10:26 24° 93° (E) 04:16:44 .
MOZHAYETS 4 27 Apr 04:08:53 04:13:23 67° 74° (ENE) 04:17:55
YUBILEINY 27 Apr 04:11:12 04:17:54 26° 81° (E) 04:24:36 435.215
NO-84 27 Apr 04:17:00 04:19:35 30° 229° (SW) 04:22:08 435.350 FM
BEESAT 27 Apr 04:18:16 04:22:48 45° 260° (W) 04:27:23 436.000
KKS-1 27 Apr 04:20:40 04:23:35 17° 64° (ENE) 04:26:30 437.445
PCSat 27 Apr 04:29:13 04:34:03 32° 309° (NW) 04:38:55 145.827
STARS 27 Apr 04:51:45 04:54:25 16° 64° (ENE) 04:57:04 437.465
ITUPSAT 1 27 Apr 05:00:43 05:03:59 18° 267° (W) 05:07:15 437.325
CUBESAT XI-V 27 Apr 05:00:52 05:05:13 40° 71° (ENE) 05:09:36 437.345
ITAMSAT 1 27 Apr 05:22:12 05:27:22 76° 286° (WNW) 05:32:32 435.822/435.867
MOZHAYETS 4 27 Apr 05:49:29 05:50:59 11° 271° (W) 05:52:30
KKS-1 27 Apr 05:55:26 05:59:45 47° 260° (W) 06:04:05 437.445
AO-7 27 Apr 05:55:35 06:03:53 75° 291° (WNW) 06:12:11 .
YUBILEINY 27 Apr 06:05:17 06:13:54 67° 281° (W) 06:22:36 435.215
STARS 27 Apr 06:26:02 06:30:20 50° 260° (W) 06:34:38 437.465
SO-50 27 Apr 06:34:17 06:38:00 24° 113° (ESE) 06:41:42 436.795
DOVE 4 27 Apr 06:35:49 06:38:51 17° 91° (E) 06:41:46 437.250
CUTE-I 27 Apr 06:36:01 06:37:04 11° 88° (E) 06:38:07 437.470
CUBESAT XI-V 27 Apr 06:39:20 06:42:44 20° 267° (W) 06:46:10 437.345
RS-15 27 Apr 06:42:09 06:51:06 25° 100° (E) 07:00:13 29.354- 29.394
XW-2B 27 Apr 06:46:02 06:47:22 11° 91° (E) 06:48:41 145.730 - 145.750
KAITUO 1B 27 Apr 06:54:34 06:55:55 12° 91° (E) 06:57:14 145.475/437.950
LilacSat-2 27 Apr 06:56:26 06:58:59 17° 93° (E) 07:01:32 437.200
XW-2C 27 Apr 06:56:58 06:59:25 16° 93° (E) 07:01:51 145.795 - 145.815
ITAMSAT 1 27 Apr 07:05:30 07:05:56 10° 303° (WNW) 07:06:21 435.822/435.867
M-CUBED/EXP-1 PRIME 27 Apr 07:20:20 07:24:27 33° 64° (ENE) 07:28:37 437.505
XW-2F 27 Apr 07:21:22 07:24:46 30° 97° (E) 07:28:08 145.980 - 146.000
STRAND 1 27 Apr 07:23:50 07:28:11 29° 67° (ENE) 07:32:33 437.568
NUDT-PHONESAT 27 Apr 07:31:27 07:34:50 32° 97° (E) 07:38:11 437.300
AO-7 27 Apr 07:50:17 07:55:17 18° 312° (NW) 08:00:19 .
YUBILEINY 27 Apr 08:08:59 08:12:37 13° 303° (WNW) 08:16:16 435.215
XW-2D 27 Apr 08:11:06 08:14:52 56° 285° (WNW) 08:18:36 145.860 - 145.880
DOVE 4 27 Apr 08:12:27 08:16:49 42° 289° (WNW) 08:20:55 437.250
CUTE-I 27 Apr 08:12:28 08:17:48 89° 283° (WNW) 08:23:07 437.470
SO-50 27 Apr 08:13:56 08:18:16 39° 309° (NW) 08:22:34 436.795
XW-2B 27 Apr 08:18:07 08:21:48 47° 286° (WNW) 08:25:29 145.730 - 145.750
HO-68 27 Apr 08:25:37 08:31:59 33° 96° (E) 08:38:18 435.675
KAITUO 1B 27 Apr 08:26:32 08:30:09 46° 286° (WNW) 08:33:47 145.475/437.950
LilacSat-2 27 Apr 08:29:53 08:33:20 32° 289° (WNW) 08:36:48 437.200
XW-2C 27 Apr 08:30:15 08:33:41 33° 289° (WNW) 08:37:09 145.795 - 145.815
UWE-3 27 Apr 08:46:54 08:47:36 10° 90° (E) 08:48:18 435.000/436.395/437.385
RS-15 27 Apr 08:49:54 09:01:59 88° 301° (WNW) 09:14:28 29.354- 29.394
M-CUBED/EXP-1 PRIME 27 Apr 08:54:52 08:58:48 28° 260° (W) 09:02:50 437.505
XW-2F 27 Apr 08:56:01 08:58:40 18° 292° (WNW) 09:01:20 145.980 - 146.000
CUBEBUG 2 27 Apr 08:58:47 09:02:14 24° 95° (E) 09:05:42 437.445
STRAND 1 27 Apr 09:02:41 09:07:15 33° 263° (W) 09:11:52 437.568
Tancredo 1 27 Apr 09:03:11 09:06:15 62° 140° (SE) 09:09:19 437.200
NUDT-PHONESAT 27 Apr 09:06:05 09:08:29 17° 293° (WNW) 09:10:53 437.300
XW-2A 27 Apr 09:06:24 09:09:46 78° 102° (ESE) 09:13:07 145.665 - 145.685
AAUSAT CUBESAT 2 27 Apr 09:13:33 09:17:02 25° 95° (E) 09:20:29 437.432
CUTE 1.7 + AOD 2 27 Apr 09:23:15 09:27:33 76° 283° (WNW) 09:31:49 437.475
ISS 27 Apr 09:28:20 09:31:35 86° 151° (SSE) 09:34:52 437.550
ZACube-1 27 Apr 09:38:42 09:42:09 24° 95° (E) 09:45:39 437.345
SEEDS 27 Apr 09:42:13 09:46:28 72° 283° (WNW) 09:50:42 437.485
AO-73 27 Apr 09:45:10 09:48:42 25° 95° (E) 09:52:17 145.935
CUTE-I 27 Apr 09:54:55 09:57:03 12° 302° (WNW) 09:59:10 437.470
Oscar 11 27 Apr 09:59:54 10:03:47 31° 96° (E) 10:07:39 .
PRISM 27 Apr 10:10:34 10:14:31 45° 72° (ENE) 10:18:31 437.425
FO-29 27 Apr 10:12:28 10:17:47 31° 67° (ENE) 10:22:38 435.910
HO-68 27 Apr 10:13:01 10:19:51 49° 294° (WNW) 10:26:41 435.675
UWE-3 27 Apr 10:20:17 10:24:27 64° 285° (WNW) 10:28:40 435.000/436.395/437.385
OBJECT BX 27 Apr 10:26:45 10:27:42 11° 91° (E) 10:28:39 145.990 - 145.960
TIGRISAT 27 Apr 10:33:09 10:37:18 44° 72° (ENE) 10:41:25 435.000
CUBEBUG 2 27 Apr 10:35:19 10:38:48 26° 291° (WNW) 10:42:20 437.445
Tancredo 1 27 Apr 10:39:55 10:42:23 21° 339° (NNW) 10:44:51 437.200
AAUSAT CUBESAT 2 27 Apr 10:48:53 10:52:25 27° 291° (WNW) 10:55:57 437.432
UNISAT 6 27 Apr 10:54:19 10:58:42 84° 78° (ENE) 11:03:02 437.425
O/OREOS (USA 219) 27 Apr 11:00:43 11:05:10 53° 108° (ESE) 11:09:40 437.305
RS-15 27 Apr 11:05:39 11:16:25 34° 329° (NNW) 11:27:21 29.354- 29.394
ISS 27 Apr 11:05:57 11:08:26 20° 341° (NNW) 11:10:56 437.550
ZACube-1 27 Apr 11:14:47 11:18:24 28° 290° (WNW) 11:22:05 437.345
AO-73 27 Apr 11:21:20 11:24:52 27° 291° (WNW) 11:28:28 145.935
DELFI C3 27 Apr 11:26:38 11:30:39 88° 101° (E) 11:34:38 145.870
NANOSAT C BR1 27 Apr 11:29:09 11:31:12 13° 63° (ENE) 11:33:14 145.865
PCSat 27 Apr 11:33:19 11:38:13 32° 51° (NE) 11:43:03 145.827
Oscar 11 27 Apr 11:36:18 11:39:45 23° 292° (WNW) 11:43:12 .
PRISM 27 Apr 11:47:40 11:50:02 15° 268° (W) 11:52:23 437.425
EO-79 27 Apr 11:55:36 11:59:11 28° 69° (ENE) 12:02:46 145.935-145.965
FO-29 27 Apr 11:56:52 12:02:46 39° 261° (W) 12:08:05 435.910
DUCHIFAT 1 27 Apr 11:57:03 12:00:24 24° 68° (ENE) 12:03:46 145.980
OBJECT BX 27 Apr 11:58:07 12:01:38 46° 286° (WNW) 12:05:09 145.990 - 145.960
TIGRISAT 27 Apr 12:11:31 12:14:12 16° 268° (W) 12:16:51 435.000
AO-85 27 Apr 12:16:08 12:17:58 13° 110° (ESE) 12:19:46 145.980
Tancredo 1 27 Apr 12:17:52 12:19:10 12° 359° (N) 12:20:28 437.200
AIST 2D 27 Apr 12:18:36 12:22:03 81° 256° (WSW) 12:25:32 435.315
POLYITAN 1 27 Apr 12:34:21 12:38:33 77° 76° (ENE) 12:42:46 437.675
QB50P2 27 Apr 12:40:59 12:45:12 82° 255° (WSW) 12:49:27 145.880/145.840
O/OREOS (USA 219) 27 Apr 12:41:51 12:44:55 17° 306° (NW) 12:48:00 437.305
ISS 27 Apr 12:44:14 12:45:53 13° 2° (N) 12:47:31 437.550
BUGSAT 1 27 Apr 12:55:33 12:59:17 33° 71° (ENE) 13:02:59 437.445
LO-87 27 Apr 12:59:33 13:03:05 63° 285° (WNW) 13:06:35 145.935 - 145.965
NANOSAT C BR1 27 Apr 13:02:18 13:06:25 55° 259° (W) 13:10:34 145.865
ESTCUBE 1 27 Apr 13:05:15 13:09:47 66° 101° (E) 13:14:17 437.505/2401.250
VELOX 1 27 Apr 13:15:54 13:19:25 23° 95° (E) 13:22:55 145.980
PCSat 27 Apr 13:16:39 13:21:38 38° 249° (WSW) 13:26:35 145.827
RS-15 27 Apr 13:25:07 13:34:17 23° 3° (N) 13:43:21 29.354- 29.394
50 SAT 27 Apr 13:29:53 13:32:02 15° 93° (E) 13:34:09 437.505
EO-79 27 Apr 13:31:27 13:34:54 24° 265° (W) 13:38:22 145.935-145.965
DUCHIFAT 1 27 Apr 13:32:19 13:35:57 28° 264° (W) 13:39:35 145.980
Oscar 19 27 Apr 13:33:53 13:38:28 33° 68° (ENE) 13:43:05 437.125/150
Gurwin Techsat 1B 27 Apr 13:42:01 13:46:15 25° 64° (ENE) 13:50:28 435.225
Tancredo 1 27 Apr 13:53:40 13:55:59 19° 19° (NNE) 13:58:19 437.200
AO-85 27 Apr 13:53:42 13:57:55 61° 304° (NW) 14:01:57 145.980
BEESAT 3 27 Apr 13:57:53 14:01:10 26° 113° (ESE) 14:04:30 437.485
DX 1 27 Apr 14:05:01 14:08:50 29° 96° (E) 14:12:35 434.975-435.025
SPROUT 27 Apr 14:12:08 14:16:23 87° 290° (WNW) 14:20:37 437.525
ISS 27 Apr 14:20:32 14:23:15 24° 22° (NNE) 14:25:58 437.550
YUBILEINY 27 Apr 14:22:09 14:25:12 12° 56° (NE) 14:28:15 435.215
BUGSAT 1 27 Apr 14:31:42 14:34:42 19° 266° (W) 14:37:42 437.445
ESTCUBE 1 27 Apr 14:43:53 14:46:01 13° 298° (WNW) 14:48:10 437.505/2401.250
VELOX 1 27 Apr 14:51:57 14:55:54 32° 291° (WNW) 14:59:48 145.980
50 SAT 27 Apr 15:01:58 15:05:01 29° 289° (WNW) 15:08:02 437.505
ITAMSAT 1 27 Apr 15:02:22 15:06:11 21° 63° (ENE) 15:10:01 435.822/435.867
AO-7 27 Apr 15:02:59 15:10:12 35° 58° (ENE) 15:17:25 .
SO-50 27 Apr 15:05:03 15:08:42 24° 45° (NE) 15:12:22 436.795
UKube-1 27 Apr 15:06:00 15:10:21 85° 284° (WNW) 15:14:38 .
Oscar 19 27 Apr 15:13:17 15:17:46 30° 264° (W) 15:22:17 437.125/150
Gurwin Techsat 1B 27 Apr 15:20:52 15:25:54 44° 261° (W) 15:30:59 435.225
ITUPSAT 1 27 Apr 15:24:03 15:25:41 12° 90° (E) 15:27:20 437.325
Tancredo 1 27 Apr 15:29:07 15:32:13 81° 218° (SW) 15:35:18 437.200
BEESAT 3 27 Apr 15:35:12 15:38:40 28° 311° (NW) 15:42:11 437.485
BEESAT 2 27 Apr 15:35:19 15:39:15 70° 304° (WNW) 15:43:17 435.950
RS-15 27 Apr 15:40:15 15:51:38 40° 37° (NE) 16:02:33 29.354- 29.394
DX 1 27 Apr 15:41:19 15:44:53 25° 293° (WNW) 15:48:27 434.975-435.025
ISS 27 Apr 15:56:44 15:59:56 57° 220° (SW) 16:03:08 437.550
MOZHAYETS 4 27 Apr 16:05:04 16:07:53 16° 92° (E) 16:10:42
YUBILEINY 27 Apr 16:15:21 16:24:03 63° 78° (ENE) 16:32:45 435.215
BEESAT 27 Apr 16:18:07 16:22:40 44° 99° (E) 16:27:13 436.000
ITAMSAT 1 27 Apr 16:40:16 16:45:17 49° 260° (W) 16:50:20 435.822/435.867
SO-50 27 Apr 16:45:04 16:49:20 43° 243° (WSW) 16:53:34 436.795
AO-7 27 Apr 16:54:30 17:02:35 56° 257° (WSW) 17:10:44 .
ITUPSAT 1 27 Apr 16:59:14 17:04:00 73° 285° (WNW) 17:08:46 437.325
DOVE 4 27 Apr 17:40:08 17:44:08 22° 66° (ENE) 17:48:05 437.250
MOZHAYETS 4 27 Apr 17:40:51 17:45:19 50° 287° (WNW) 17:49:46
KKS-1 27 Apr 17:46:27 17:50:24 31° 97° (E) 17:54:19 437.445
RS-15 27 Apr 17:53:05 18:05:15 75° 243° (WSW) 18:16:49 29.354- 29.394
CUTE-I 27 Apr 17:56:13 17:59:59 20° 62° (ENE) 18:03:46 437.470
BEESAT 27 Apr 17:56:39 18:00:08 21° 296° (WNW) 18:03:37 436.000
XW-2F 27 Apr 18:03:16 18:05:26 15° 66° (ENE) 18:07:38 145.980 - 146.000
NUDT-PHONESAT 27 Apr 18:11:45 18:13:56 15° 67° (ENE) 18:16:07 437.300
YUBILEINY 27 Apr 18:13:09 18:20:11 28° 278° (W) 18:27:14 435.215
STARS 27 Apr 18:15:37 18:19:21 27° 96° (E) 18:23:03 437.465
CUBESAT XI-V 27 Apr 18:34:12 18:38:56 81° 285° (WNW) 18:43:38 437.345
XW-2D 27 Apr 18:51:51 18:55:33 64° 74° (ENE) 18:59:16 145.860 - 145.880
HO-68 27 Apr 18:55:04 19:00:38 25° 59° (ENE) 19:06:14 435.675
XW-2B 27 Apr 18:58:47 19:02:30 76° 77° (ENE) 19:06:16 145.730 - 145.750
KAITUO 1B 27 Apr 19:05:57 19:09:37 74° 76° (ENE) 19:13:19 145.475/437.950
XW-2C 27 Apr 19:10:46 19:14:29 74° 259° (WSW) 19:18:14 145.795 - 145.815
LilacSat-2 27 Apr 19:10:59 19:14:42 70° 259° (WSW) 19:18:29 437.200
DOVE 4 27 Apr 19:16:20 19:21:27 49° 261° (W) 19:26:31 437.250
KKS-1 27 Apr 19:23:14 19:26:48 24° 293° (WNW) 19:30:22 437.445
O/OREOS (USA 219) 27 Apr 19:33:26 19:35:18 12° 51° (NE) 19:37:11 437.305
NO-84 27 Apr 19:33:45 19:37:01 27° 131° (SE) 19:40:04 435.350 FM
CUTE-I 27 Apr 19:34:21 19:39:35 56° 259° (W) 19:44:51 437.470
XW-2F 27 Apr 19:35:51 19:39:16 36° 262° (W) 19:42:45 145.980 - 146.000
XW-2A 27 Apr 19:38:00 19:40:43 23° 70° (ENE) 19:43:26 145.665 - 145.685
NUDT-PHONESAT 27 Apr 19:44:12 19:47:33 34° 262° (W) 19:50:56 437.300
STARS 27 Apr 19:51:56 19:55:36 27° 292° (WNW) 19:59:14 437.465
CUBEBUG 2 27 Apr 19:57:04 20:00:21 21° 68° (ENE) 20:03:36 437.445
AAUSAT CUBESAT 2 27 Apr 20:04:12 20:06:53 17° 66° (ENE) 20:09:35 437.432
RS-15 27 Apr 20:08:46 20:15:23 17° 264° (W) 20:21:53 29.354- 29.394
CUTE 1.7 + AOD 2 27 Apr 20:15:19 20:19:30 73° 77° (ENE) 20:23:45 437.475
SEEDS 27 Apr 20:33:15 20:37:25 75° 75° (ENE) 20:41:37 437.485
M-CUBED/EXP-1 PRIME 27 Apr 20:34:14 20:37:15 20° 97° (E) 20:40:07 437.505
ZACube-1 27 Apr 20:35:00 20:37:56 19° 67° (ENE) 20:40:51 437.345
HO-68 27 Apr 20:40:41 20:47:46 66° 257° (WSW) 20:54:55 435.675
AO-73 27 Apr 20:41:06 20:44:07 20° 67° (ENE) 20:47:07 145.935
AO-85 27 Apr 20:45:50 20:47:41 13° 41° (NE) 20:49:32 145.980
Oscar 11 27 Apr 20:54:48 20:58:15 24° 68° (ENE) 21:01:43 .
O/OREOS (USA 219) 27 Apr 21:10:45 21:15:21 81° 247° (WSW) 21:19:52 437.305
XW-2A 27 Apr 21:11:09 21:13:26 17° 266° (W) 21:15:44 145.665 - 145.685
NO-84 27 Apr 21:11:09 21:14:30 34° 325° (NW) 21:17:37 435.350 FM
STRAND 1 27 Apr 21:12:26 21:17:33 83° 103° (ESE) 21:22:40 437.568
UWE-3 27 Apr 21:16:47 21:21:04 83° 257° (WSW) 21:25:16 435.000/436.395/437.385
CUBEBUG 2 27 Apr 21:32:52 21:36:48 33° 263° (W) 21:40:39 437.445
AAUSAT CUBESAT 2 27 Apr 21:38:06 21:42:01 40° 262° (W) 21:45:58 437.432
M-CUBED/EXP-1 PRIME 27 Apr 22:08:03 22:11:48 32° 296° (WNW) 22:15:16 437.505
ZACube-1 27 Apr 22:10:07 22:13:59 35° 263° (W) 22:17:49 437.345
DELFI C3 27 Apr 22:11:35 22:15:24 46° 73° (ENE) 22:19:15 145.870
BEESAT 3 27 Apr 22:14:38 22:17:29 18° 45° (NE) 22:20:19 437.485
AO-73 27 Apr 22:16:21 22:20:08 33° 263° (W) 22:23:55 145.935
AO-85 27 Apr 22:24:33 22:28:32 77° 239° (WSW) 22:32:41 145.980
Oscar 11 27 Apr 22:30:29 22:34:14 29° 264° (W) 22:38:01 .
OBJECT BX 27 Apr 22:35:18 22:38:54 68° 76° (ENE) 22:42:31 145.990 - 145.960
UNISAT 6 27 Apr 22:46:53 22:49:40 17° 93° (E) 22:52:28 437.425
STRAND 1 27 Apr 22:53:48 22:56:00 13° 301° (WNW) 22:58:15 437.568
FO-29 27 Apr 23:05:38 23:09:45 23° 95° (E) 23:14:04 435.910
PRISM 27 Apr 23:26:48 23:30:58 75° 103° (ESE) 23:35:04 437.425
LO-87 27 Apr 23:35:09 23:38:38 46° 74° (ENE) 23:42:08 145.935 - 145.965
DELFI C3 27 Apr 23:48:35 23:50:26 13° 269° (W) 23:52:18 145.870
BEESAT 3 27 Apr 23:51:27 23:55:19 48° 242° (WSW) 23:59:09 437.485
BEESAT 2 27 Apr 23:52:57 23:57:01 65° 56° (ENE) 00:01:00 435.950
TIGRISAT 28 Apr 00:00:40 00:04:58 79° 283° (WNW) 00:09:18 435.000
ESTCUBE 1 28 Apr 00:04:20 00:08:45 58° 74° (ENE) 00:13:12 437.505/2401.250
VELOX 1 28 Apr 00:13:11 00:16:33 21° 66° (ENE) 00:19:55 145.980
POLYITAN 1 28 Apr 00:21:04 00:22:48 12° 91° (E) 00:24:31 437.675
UNISAT 6 28 Apr 00:22:31 00:26:33 41° 288° (WNW) 00:30:38 437.425
QB50P2 28 Apr 00:27:00 00:29:36 16° 92° (E) 00:32:11 145.880/145.840
